Terug naar catalogus

STARLINK-34956

ActiefCommunicatieSSO
NORAD 65174·PAYLOAD·🇺🇸 United States

Gelanceerd Aug 14, 2025 vanaf Vandenberg Space Force Base

Loading…

Volgende Passages (komende 24 uur)

TLE

VersSource: CelesTrak SupGP

Epoch: Sep 14, 2026, 14:25 UTC

1 65174C 25175A   26257.60118056  .00046781  00000+0  14525-2 0  2573
2 65174  97.2843 126.6011 0001950  88.0222 306.4572 15.33407302    18

Volg STARLINK-34956 in realtime met AllMySat

Download on the App Store